This is the latest recevied weather packets stored in our database for station/object DO7CRZ-12. If no packets are shown the sender has not sent any weather packets the latest 10 day(s).
| Time | Temp. | Humidity | Pressure | Rain* | Wind** | Luminosity | Snow |
|---|---|---|---|---|---|---|---|
| 1777563445 | 25.56° C | 18% | 1028.6 hPa | 0 mm | - | 186 W/m² | - |
| 1777562842 | 25.56° C | 18% | 1028.7 hPa | 0 mm | - | 198 W/m² | - |
| 1777562240 | 24.44° C | 20% | 1028.8 hPa | 0 mm | - | 221 W/m² | - |
| 1777561637 | 23.33° C | 21% | 1028.9 hPa | 0 mm | - | 252 W/m² | - |
| 1777561049 | 22.78° C | 19% | 1029 hPa | 0 mm | - | 281 W/m² | - |
| 1777560446 | 23.33° C | 22% | 1029 hPa | 0 mm | - | 302 W/m² | - |
| 1777559240 | 22.78° C | 19% | 1029.2 hPa | 0 mm | - | 243 W/m² | - |
| 1777558050 | 23.89° C | 20% | 1029.4 hPa | 0 mm | - | 242 W/m² | - |
| 1777557447 | 23.89° C | 21% | 1029.4 hPa | 0 mm | - | 398 W/m² | - |
| 1777556844 | 22.78° C | 20% | 1029.4 hPa | 0 mm | - | 396 W/m² | - |
| 1777556242 | 22.78° C | 17% | 1029.5 hPa | 0 mm | - | 371 W/m² | - |
| 1777555036 | 21.11° C | 18% | 1029.7 hPa | 0 mm | - | 436 W/m² | - |
| 1777554448 | 23.33° C | 19% | 1029.8 hPa | 0 mm | - | 227 W/m² | - |
| 1777553845 | 24.44° C | 19% | 1029.9 hPa | 0 mm | - | 419 W/m² | - |
| 1777553242 | 24.44° C | 18% | 1030 hPa | 0 mm | - | 581 W/m² | - |
| 1777552639 | 23.89° C | 20% | 1030.1 hPa | 0 mm | - | 546 W/m² | - |
| 1777552037 | 22.78° C | 18% | 1030.1 hPa | 0 mm | - | 519 W/m² | - |
| 1777550846 | 21.67° C | 17% | 1030.3 hPa | 0 mm | - | 111 W/m² | - |
| 1777550244 | 21.11° C | 17% | 1030.4 hPa | 0 mm | - | 528 W/m² | - |
| 1777549640 | 21.67° C | 17% | 1030.4 hPa | 0 mm | - | 362 W/m² | - |
| 1777549038 | 20.56° C | 17% | 1030.7 hPa | 0 mm | - | 368 W/m² | - |
| 1777547847 | 23.89° C | 19% | 1030.8 hPa | 0 mm | - | 701 W/m² | - |
| 1777547244 | 21.67° C | 16% | 1030.7 hPa | 0 mm | - | 613 W/m² | - |
| 1777546641 | 21.11° C | 16% | 1030.8 hPa | 0 mm | - | 462 W/m² | - |
| 1777546038 | 22.22° C | 15% | 1030.9 hPa | 0 mm | - | 381 W/m² | - |
* Rain latest hour (hover to see other rain measurements)
** Current wind speed in m/s (hover to see current wind gust speed)